User: anonymous   Login
Location: Clinton NY
(43.0598°N, 75.3602°W)
Time: 03:44:39
(UTC-05:00)
Language:

Iridium 11 - Orbit

View from above orbital plane
View from above orbital plane
View from above satellite
View from above satellite

Ground track
Ground track

The orbit data is extracted from the following two-line orbital elements,

1 25578U 98074B   18052.41945479  .00000179  00000-0  56744-4 0  9991
2 25578  86.4011 151.4648 0002435  82.9187 351.8800 14.34217144 13120
Epoch (UTC): 21 February 2018 10:04:00
Eccentricity: 0.0002435
inclination: 86.4011°
perigee height: 776 km
apogee height: 779 km
right ascension of ascending node: 151.4648°
argument of perigee: 82.9187°
revolutions per day: 14.34217144
mean anomaly at epoch: 351.8800°
orbit number at epoch: 1312

The dashed part of the orbit path shows where the satellite is in the earth's shadow,  

DLR